Hourly Data Report for October 02, 2017

All times are specified in Local Standard Time (LST). Add 1 hour to adjust for Daylight Saving Time where and when it is observed.

SUSSEX FOUR CORNERS
NEW BRUNSWICK

45°44'30.048" N
65°31'44.039" W
47.00 m
8105210
71656
ASF

Download Data

Hourly Data (October 2017)
Hourly Data Report for October 2, 2017
Temp Definition
°C
Dew Point Temp Definition
°C
Rel Hum Definition
%
Wind Dir Definition
10's deg

Wind Spd Definition
km/h
Visibility Definition
km
Stn Press Definition
kPa
Hmdx Definition


Wind Chill Definition


Weather Definition


TIME
00:00 5.8 5.2 96 9 2   101.38     LegendNANA
01:00 4.8 4.3 97 0 1   101.41     LegendNANA
02:00 4.0 3.5 97   0   101.42     LegendNANA
03:00 3.7 3.4 98 8 1   101.44     LegendNANA
04:00 2.9 2.6 98 11 2   101.51     LegendNANA
05:00 2.6 2.3 98 13 2   101.58     LegendNANA
06:00 3.6 3.3 98 17 4   101.67     LegendNANA
07:00 5.4 4.0 91 3 7   101.79     LegendNANA
08:00 6.0 4.3 89 3 6   101.90     LegendNANA
09:00 9.4 3.3 65 36 17   101.98     LegendNANA
10:00 11.1 2.4 55 35 17   102.05     LegendNANA
11:00 11.5 1.1 49 33 17   102.10     LegendNANA
12:00 12.3 0.6 45 35 20   102.12     LegendNANA
13:00 12.8 0.8 44 1 19   102.17     LegendNANA
14:00 13.1 0.3 41 3 19   102.18     LegendNANA
15:00 13.5 0.9 42 1 17   102.20     LegendNANA
16:00 13.2 0.6 42 1 18   102.24     LegendNANA
17:00 12.3 0.5 44 1 12   102.32     LegendNANA
18:00 9.8 1.1 55 4 7   102.42     LegendNANA
19:00 7.9 2.2 68 5 7   102.56     LegendNANA
20:00 6.4 2.5 76 8 4   102.64     LegendNANA
21:00 5.2 2.3 82 7 2   102.70     LegendNANA
22:00 2.4 1.1 91 30 1   102.76     LegendNANA
23:00 1.7 0.8 93 1 4   102.80     LegendNANA

Notes on Data Quality.

Legend

  • E = Estimated
  • M = Missing
  • NA = Not Available
  • ‡ = Partner data that is not subject to review by the National Climate Archives
Date modified: